iso_date,epoch_date,Year,Hour,Min,DOY,POS_DOY,Lat,Lon,BP,Ts,Ta,has_bp,has_ts,has_ta,BuoyID,Buoy_Type,Buoy_Owner,Logistics,Hemisphere
2021-08-18T23:37:58Z,1629329878,2021,23,38,230.9847,230.9847,70.06425,-52.3605,-999.00,-999.00,-999.0,no,no,no,4435274,SPIT,USIABP,ICE-PPR<br>DiskoBay,North
2021-08-18T23:57:59Z,1629331079,2021,23,58,230.9986,230.9986,70.06433,-52.36026,-999.00,-999.00,-999.0,no,no,no,4435274,SPIT,USIABP,ICE-PPR<br>DiskoBay,North
2021-08-19T00:07:03Z,1629331623,2021,0,7,231.0049,231.0049,70.06439,-52.36038,-999.00,-999.00,-999.0,no,no,no,4435274,SPIT,USIABP,ICE-PPR<br>DiskoBay,North
2021-08-19T00:38:00Z,1629333481,2021,0,38,231.0264,231.0264,70.0644,-52.36053,-999.00,-999.00,-999.0,no,no,no,4435274,SPIT,USIABP,ICE-PPR<br>DiskoBay,North
2021-08-19T01:07:58Z,1629335278,2021,1,8,231.0472,231.0472,70.06431,-52.36104,-999.00,-999.00,-999.0,no,no,no,4435274,SPIT,USIABP,ICE-PPR<br>DiskoBay,North
2021-08-19T01:38:03Z,1629337084,2021,1,38,231.0681,231.0681,70.06426,-52.3613,-999.00,-999.00,-999.0,no,no,no,4435274,SPIT,USIABP,ICE-PPR<br>DiskoBay,North
2021-08-19T02:36:57Z,1629340618,2021,2,37,231.109,231.109,70.06462,-52.36045,-999.00,-999.00,-999.0,no,no,no,4435274,SPIT,USIABP,ICE-PPR<br>DiskoBay,North
2021-08-19T03:07:03Z,1629342423,2021,3,7,231.1299,231.1299,70.06453,-52.36062,-999.00,-999.00,-999.0,no,no,no,4435274,SPIT,USIABP,ICE-PPR<br>DiskoBay,North
2021-08-19T03:37:00Z,1629344220,2021,3,37,231.1507,231.1507,70.06449,-52.36053,-999.00,-999.00,-999.0,no,no,no,4435274,SPIT,USIABP,ICE-PPR<br>DiskoBay,North
2021-08-19T04:37:03Z,1629347823,2021,4,37,231.1924,231.1924,70.06443,-52.36007,-999.00,-999.00,-999.0,no,no,no,4435274,SPIT,USIABP,ICE-PPR<br>DiskoBay,North
2021-08-19T05:07:00Z,1629349620,2021,5,7,231.2132,231.2132,70.06408,-52.3605,-999.00,-999.00,-999.0,no,no,no,4435274,SPIT,USIABP,ICE-PPR<br>DiskoBay,North
2021-08-19T05:36:57Z,1629351418,2021,5,37,231.234,231.234,70.06439,-52.36041,-999.00,-999.00,-999.0,no,no,no,4435274,SPIT,USIABP,ICE-PPR<br>DiskoBay,North
2021-08-19T06:07:03Z,1629353223,2021,6,7,231.2549,231.2549,70.06444,-52.36023,-999.00,-999.00,-999.0,no,no,no,4435274,SPIT,USIABP,ICE-PPR<br>DiskoBay,North
2021-08-19T06:36:00Z,1629354960,2021,6,36,231.275,231.275,70.06412,-52.36014,-999.00,-999.00,-999.0,no,no,no,4435274,SPIT,USIABP,ICE-PPR<br>DiskoBay,North
2021-08-19T07:05:57Z,1629356757,2021,7,6,231.2958,231.2958,70.06446,-52.3598,-999.00,-999.00,-999.0,no,no,no,4435274,SPIT,USIABP,ICE-PPR<br>DiskoBay,North
2021-08-19T07:36:02Z,1629358563,2021,7,36,231.3167,231.3167,70.06412,-52.36077,-999.00,-999.00,-999.0,no,no,no,4435274,SPIT,USIABP,ICE-PPR<br>DiskoBay,North
2021-08-19T08:06:00Z,1629360360,2021,8,6,231.3375,231.3375,70.06408,-52.36077,-999.00,-999.00,-999.0,no,no,no,4435274,SPIT,USIABP,ICE-PPR<br>DiskoBay,North
2021-08-19T08:35:57Z,1629362157,2021,8,36,231.3583,231.3583,70.06459,-52.35965,-999.00,-999.00,-999.0,no,no,no,4435274,SPIT,USIABP,ICE-PPR<br>DiskoBay,North
2021-08-19T09:06:02Z,1629363963,2021,9,6,231.3792,231.3792,70.06452,-52.35959,-999.00,-999.00,-999.0,no,no,no,4435274,SPIT,USIABP,ICE-PPR<br>DiskoBay,North
2021-08-19T09:36:00Z,1629365760,2021,9,36,231.4,231.4,70.06422,-52.36081,-999.00,-999.00,-999.0,no,no,no,4435274,SPIT,USIABP,ICE-PPR<br>DiskoBay,North
2021-08-19T10:36:02Z,1629369363,2021,10,36,231.4417,231.4417,70.06458,-52.36002,-999.00,-999.00,-999.0,no,no,no,4435274,SPIT,USIABP,ICE-PPR<br>DiskoBay,North
2021-08-19T17:34:56Z,1629394497,2021,17,35,231.7326,231.7326,70.27296,-53.50116,-999.00,-999.00,-999.0,no,no,no,4435274,SPIT,USIABP,ICE-PPR<br>DiskoBay,North
2021-08-19T18:34:59Z,1629398100,2021,18,35,231.7743,231.7743,70.20424,-52.91953,-999.00,-999.00,-999.0,no,no,no,4435274,SPIT,USIABP,ICE-PPR<br>DiskoBay,North
2021-08-19T19:03:56Z,1629399836,2021,19,4,231.7944,231.7944,70.18213,-52.84172,-999.00,-999.00,-999.0,no,no,no,4435274,SPIT,USIABP,ICE-PPR<br>DiskoBay,North
2021-08-19T19:34:01Z,1629401642,2021,19,34,231.8153,231.8153,70.10638,-52.70267,-999.00,-999.00,-999.0,no,no,no,4435274,SPIT,USIABP,ICE-PPR<br>DiskoBay,North
2021-08-19T20:03:59Z,1629403439,2021,20,4,231.8361,231.8361,70.07252,-52.46329,-999.00,-999.00,-999.0,no,no,no,4435274,SPIT,USIABP,ICE-PPR<br>DiskoBay,North
2021-08-19T21:04:01Z,1629407042,2021,21,4,231.8778,231.8778,70.06631,-52.364,-999.00,-999.00,-999.0,no,no,no,4435274,SPIT,USIABP,ICE-PPR<br>DiskoBay,North
2021-08-19T21:33:59Z,1629408839,2021,21,34,231.8986,231.8986,70.0664,-52.364,-999.00,-999.00,-999.0,no,no,no,4435274,SPIT,USIABP,ICE-PPR<br>DiskoBay,North
2021-08-19T22:03:56Z,1629410636,2021,22,4,231.9194,231.9194,70.0658,-52.36572,-999.00,-999.00,-999.0,no,no,no,4435274,SPIT,USIABP,ICE-PPR<br>DiskoBay,North
2021-08-19T22:34:01Z,1629412442,2021,22,34,231.9403,231.9403,70.06614,-52.3646,-999.00,-999.00,-999.0,no,no,no,4435274,SPIT,USIABP,ICE-PPR<br>DiskoBay,North
2021-08-19T23:03:59Z,1629414239,2021,23,4,231.9611,231.9611,70.06589,-52.36572,-999.00,-999.00,-999.0,no,no,no,4435274,SPIT,USIABP,ICE-PPR<br>DiskoBay,North
2021-08-19T23:33:56Z,1629416036,2021,23,34,231.9819,231.9819,70.06581,-52.36536,-999.00,-999.00,-999.0,no,no,no,4435274,SPIT,USIABP,ICE-PPR<br>DiskoBay,North
2021-08-20T00:33:59Z,1629419639,2021,0,34,232.0236,232.0236,70.06531,-52.36228,-999.00,-999.00,-999.0,no,no,no,4435274,SPIT,USIABP,ICE-PPR<br>DiskoBay,North
2021-08-20T01:03:56Z,1629421436,2021,1,4,232.0444,232.0444,70.06531,-52.36279,-999.00,-999.00,-999.0,no,no,no,4435274,SPIT,USIABP,ICE-PPR<br>DiskoBay,North
2021-08-20T01:34:01Z,1629423242,2021,1,34,232.0653,232.0653,70.06519,-52.36267,-999.00,-999.00,-999.0,no,no,no,4435274,SPIT,USIABP,ICE-PPR<br>DiskoBay,North
2021-08-20T02:33:04Z,1629426784,2021,2,33,232.1063,232.1063,70.06516,-52.36423,-999.00,-999.00,-999.0,no,no,no,4435274,SPIT,USIABP,ICE-PPR<br>DiskoBay,North
2021-08-20T03:03:01Z,1629428581,2021,3,3,232.1271,232.1271,70.06507,-52.36389,-999.00,-999.00,-999.0,no,no,no,4435274,SPIT,USIABP,ICE-PPR<br>DiskoBay,North
2021-08-20T04:02:55Z,1629432176,2021,4,3,232.1687,232.1687,70.06518,-52.36273,-999.00,-999.00,-999.0,no,no,no,4435274,SPIT,USIABP,ICE-PPR<br>DiskoBay,North
2021-08-20T04:33:01Z,1629433981,2021,4,33,232.1896,232.1896,70.06441,-52.36084,-999.00,-999.00,-999.0,no,no,no,4435274,SPIT,USIABP,ICE-PPR<br>DiskoBay,North
2021-08-20T05:02:58Z,1629435779,2021,5,3,232.2104,232.2104,70.06448,-52.36017,-999.00,-999.00,-999.0,no,no,no,4435274,SPIT,USIABP,ICE-PPR<br>DiskoBay,North
2021-08-20T05:33:04Z,1629437584,2021,5,33,232.2313,232.2313,70.06478,-52.35974,-999.00,-999.00,-999.0,no,no,no,4435274,SPIT,USIABP,ICE-PPR<br>DiskoBay,North
2021-08-20T06:03:01Z,1629439381,2021,6,3,232.2521,232.2521,70.06461,-52.36008,-999.00,-999.00,-999.0,no,no,no,4435274,SPIT,USIABP,ICE-PPR<br>DiskoBay,North
2021-08-20T06:32:58Z,1629441179,2021,6,33,232.2729,232.2729,70.06443,-52.36078,-999.00,-999.00,-999.0,no,no,no,4435274,SPIT,USIABP,ICE-PPR<br>DiskoBay,North
2021-08-20T07:02:03Z,1629442924,2021,7,2,232.2931,232.2931,70.06489,-52.35957,-999.00,-999.00,-999.0,no,no,no,4435274,SPIT,USIABP,ICE-PPR<br>DiskoBay,North
2021-08-20T07:32:00Z,1629444721,2021,7,32,232.3139,232.3139,70.06447,-52.3606,-999.00,-999.00,-999.0,no,no,no,4435274,SPIT,USIABP,ICE-PPR<br>DiskoBay,North
2021-08-20T08:01:58Z,1629446518,2021,8,2,232.3347,232.3347,70.0646,-52.36026,-999.00,-999.00,-999.0,no,no,no,4435274,SPIT,USIABP,ICE-PPR<br>DiskoBay,North
2021-08-20T08:32:03Z,1629448324,2021,8,32,232.3556,232.3556,70.06455,-52.36021,-999.00,-999.00,-999.0,no,no,no,4435274,SPIT,USIABP,ICE-PPR<br>DiskoBay,North
2021-08-20T09:02:00Z,1629450121,2021,9,2,232.3764,232.3764,70.06485,-52.36047,-999.00,-999.00,-999.0,no,no,no,4435274,SPIT,USIABP,ICE-PPR<br>DiskoBay,North
2021-08-20T09:31:58Z,1629451918,2021,9,32,232.3972,232.3972,70.06505,-52.36298,-999.00,-999.00,-999.0,no,no,no,4435274,SPIT,USIABP,ICE-PPR<br>DiskoBay,North
2021-08-20T12:31:58Z,1629462718,2021,12,32,232.5222,232.5222,69.97533,-52.38373,-999.00,-999.00,-999.0,no,no,no,4435274,SPIT,USIABP,ICE-PPR<br>DiskoBay,North
2021-08-20T19:30:00Z,1629487800,2021,19,30,232.8125,232.8125,69.99247,-52.50989,-999.00,-999.00,-999.0,no,no,no,4435274,SPIT,USIABP,ICE-PPR<br>DiskoBay,North
2021-08-20T22:58:56Z,1629500337,2021,22,59,232.9576,232.9576,69.99731,-52.56259,-999.00,-999.00,-999.0,no,no,no,4435274,SPIT,USIABP,ICE-PPR<br>DiskoBay,North
